Location: Aetna Mine
(37.6183°N, 107.6045°W)
Time: 11:08:36
(UTC+00:00)

Meteor 1-4 Rocket - Pass Details

Date: 18 September 2020
Orbit: 450 x 501 km, 81.2° (Epoch: 20 October)

Event Time Altitude Azimuth Distance (km) Brightness Sun altitude
Exits shadow 12:09:52 11° 235° (SW) 1,489 4.5 -9.8°
Maximum altitude 12:12:21 22° 285° (WNW) 1,038 3.7 -9.3°
Drops below altitude 10° 12:15:07 10° 338° (NNW) 1,597 5.1 -8.8°
Sets 12:17:33 0° 354° (N) 2,483 6.2 -8.3°
